Retour au catalogue

STARLINK-30759

ActifCommunicationsVLEO
NORAD 58122·PAYLOAD·🇺🇸 United States

Lancé Oct 22, 2023 depuis Cape Canaveral Space Force Station

Loading…

Prochains Passages (prochaines 24 heures)

TLE

FraisSource: CelesTrak SupGP

Époque: Sep 14, 2026, 14:37 UTC

1 58122C 23162E   26257.60951389  .00046824  00000+0  16967-2 0  2576
2 58122  43.0021 145.4026 0001396 263.9705  37.7846 15.27540401    18

Suivez STARLINK-30759 en temps réel avec AllMySat

Download on the App Store